Regional Weather Roundup
Issued by NWS Cleveland, OH

Home | Current Version | Previous Version | Graphics & Text | Print | Product List | Glossary On
Versions: 1 2 3 4 5 6 7 8 9 10 11 12 13 14 15 16 17 18 19 20 21 22 23 24 25 26 27 28 29 30 31 32 33 34 35 36 37 38 39 40 41 42 43 44 45 46 47 48 49 50
000
ASUS41 KCLE 250102
RWRCLE
OHIO REGIONAL WEATHER ROUNDUP
NATIONAL WEATHER SERVICE CLEVELAND, OH
900 PM EDT THU APR 24 2014

NOTE: "FAIR" INDICATES FEW OR NO CLOUDS BELOW 12,000 FEET WITH NO
SIGNIFICANT WEATHER AND/OR OBSTRUCTIONS TO VISIBILITY.

OHZ001>008-015>018-024>027-034-035-043-044-250200-
   NORTHWEST OHIO

CITY           SKY/WX    TMP DP  RH WIND       PRES   REMARKS
DEFIANCE       CLOUDY    48  28  46 E12       29.88F
FINDLAY        CLOUDY    48  30  49 E13       29.89F
TOLEDO EXPRESS CLOUDY    45  23  42 E14G22    29.91F
TOLEDO EXEC    CLOUDY    45  25  45 E13       29.93F
LIMA           CLOUDY    52  29  41 E12       29.87F
$$

OHZ009>014-019>023-028>033-038-089-250200-
   NORTHEAST OHIO

CITY           SKY/WX    TMP DP  RH WIND       PRES   REMARKS
CLE-HOPKINS    CLOUDY    50  27  40 NE7       30.00F
CLE-LAKEFRONT  MOCLDY    48  34  58 NE10      29.97F
CUY CO. ARPT   CLOUDY    48  25  40 NE12      29.99S
LORAIN-ELYRIA  CLOUDY    49  23  36 E12       29.96F
ASHTABULA      PTCLDY    46  12  25 NE3       30.01F
AKRON-CANTON   CLOUDY    54  20  27 E3        29.97F
WOOSTER        CLOUDY    52  31  44 E7        29.96F
MANSFIELD      CLOUDY    53  27  36 E7        29.93F
YOUNGSTOWN     CLOUDY    50  19  29 CALM      29.98F
$$

OHZ042-051>053-060>062-070>072-077>081-250200-
  SOUTHWEST OHIO

CITY           SKY/WX    TMP DP  RH WIND       PRES   REMARKS
CINC-COVINGTON CLOUDY    60  32  34 E8        29.82F
CINC-LUNKEN    CLOUDY    58  37  45 CALM      29.83F
HAMILTON       CLOUDY    58  34  40 E6        29.84F
DAYTON         CLOUDY    59  22  24 E13       29.86F
WRIGHT-PAT AFB CLOUDY    57  23  26 E8        29.86S
DAYTON GENERAL CLOUDY    59  24  26 E6        29.84F
WILMINGTON     CLOUDY    56  23  27 E8        29.86F
$$

OHZ036-037-039>041-045>050-054>059-063>069-073>076-082>088-250200-
  CENTRAL AND SOUTHEAST OHIO

CITY           SKY/WX    TMP DP  RH WIND       PRES   REMARKS
COLUMBUS       CLOUDY    58  23  26 E10       29.90F
OSU AIRPORT    CLOUDY    53  25  33 E7        29.89F
BOLTON FIELD   NOT AVBL
RICKENBACK AFB NOT AVBL
NEWARK         CLOUDY    57  24  28 E9        29.91F
MARION         CLOUDY    54  26  34 SE12      29.90F
LANCASTER      CLOUDY    55  25  31 E9        29.90F
ZANESVILLE     CLOUDY    58  22  24 E5        29.94F
NEW PHILLY     MOCLDY    54  21  27 CALM      29.97S
$$



USA.gov is the U.S. government's official web portal to all federal, state and local government web resources and services.